Wind_Speed
20 21 22 23 23 24 24 24 24 24 24 24 24 24 24 24 24 24 23 22 22 22 22 22 23 24 25 25 24 22 21 20 19 18 19 19 19 19 19 19 19 20 20 21 21 22 22 22 23 23 23 23 22 22 21 20 20 20 20 21 22 22 22 22 21 20 19 17 17 18 21 25 28 31 34 33 33 33 34 36 38 39 41 43 44 44
20 21 21 22 23 23 23 23 23 23 23 24 24 24 23 24 25 24 23 22 21 21 20 21 22 24 26 26 24 22 20 19 19 19 19 19 20 20 20 20 20 20 20 20 21 22 22 23 23 23 23 23 23 22 22 21 21 21 21 22 23 23 23 23 23 22 21 19 18 18 21 24 27 30 33 33 31 31 32 33 35 37 39 41 43 44
20 20 21 22 22 22 22 23 23 23 24 24 23 23 23 24 24 23 22 22 21 20 20 20 22 24 26 25 23 21 20 19 19 19 20 20 21 20 20 20 19 19 19 19 20 21 22 23 23 24 24 23 23 22 22 22 22 22 22 22 23 24 24 25 25 24 23 21 20 20 21 23 26 29 32 33 32 31 32 32 33 35 37 39 42 44
18 19 22 22 22 22 22 22 24 24 23 23 22 22 22 22 22 22 22 22 21 21 20 21 23 24 25 24 23 21 20 20 20 21 21 22 21 21 20 19 18 18 18 18 19 20 21 22 23 23 24 23 23 22 22 23 24 24 23 23 23 24 25 26 26 26 25 23 21 21 21 23 26 29 32 34 33 32 32 33 34 35 36 37 40 43
18 19 21 22 22 22 22 23 23 23 22 21 20 20 21 21 21 22 22 22 21 21 21 22 24 24 24 23 22 21 20 20 21 22 22 21 21 20 18 17 17 17 17 18 19 20 21 22 23 23 24 24 23 23 23 24 26 26 24 23 23 24 26 27 27 26 26 24 23 21 21 23 26 29 32 34 35 34 33 35 36 36 36 36 38 40
19 20 20 20 21 21 22 22 21 21 20 20 20 20 20 21 21 21 21 21 21 21 22 23 23 23 22 22 21 21 21 21 22 22 21 20 19 18 17 16 16 17 18 18 19 20 21 21 22 23 24 24 24 25 25 26 27 27 25 23 22 24 26 27 27 27 27 26 24 23 21 22 25 29 32 35 36 35 34 36 37 38 37 36 36 38
20 20 20 20 20 21 21 21 20 19 19 19 20 21 21 21 21 20 20 21 21 22 22 22 22 21 21 20 20 20 21 22 22 21 20 19 18 17 17 17 17 18 19 20 20 21 21 22 22 23 24 24 25 26 27 28 28 28 26 23 22 24 26 27 28 28 28 27 26 24 23 22 23 27 32 35 37 37 35 36 38 39 38 36 36 37
20 21 20 19 19 20 20 19 19 18 18 19 20 21 22 21 21 20 20 21 21 21 21 20 20 20 19 20 20 21 22 22 22 21 19 18 17 17 18 19 20 20 20 21 21 21 21 22 22 23 24 24 25 26 27 28 29 29 27 24 23 24 26 28 29 29 29 28 27 26 24 23 23 26 30 34 37 38 36 36 38 40 40 39 38 38
19 19 19 19 19 19 19 19 18 18 18 19 19 20 20 21 21 21 21 20 20 19 19 19 20 20 19 20 20 21 21 21 20 19 18 18 18 20 21 22 22 22 22 21 21 21 22 22 23 23 24 25 25 26 27 29 30 30 28 25 23 24 27 29 30 30 30 29 28 27 26 24 24 25 29 33 37 39 39 37 39 41 42 42 40 40
18 18 18 18 18 17 17 18 19 19 19 19 19 18 18 18 19 21 21 21 20 19 18 18 19 19 20 20 21 21 21 20 19 18 17 17 19 21 23 24 23 23 22 22 22 22 22 23 23 24 25 25 26 27 28 29 30 30 29 27 25 25 27 29 30 31 31 31 30 28 27 25 24 25 28 32 37 40 41 39 39 42 44 44 43 42
18 18 17 17 17 17 17 17 18 19 19 19 18 17 16 15 17 18 20 21 21 20 19 18 18 18 20 21 22 22 21 20 18 17 17 19 22 24 24 24 23 22 21 21 22 22 23 23 24 24 25 26 26 27 28 29 30 31 30 28 27 27 28 30 31 32 32 32 31 29 27 26 25 26 27 31 36 41 44 42 41 42 44 45 45 44
17 17 16 16 16 16 17 17 18 18 18 17 16 15 15 16 16 17 18 19 20 21 20 20 19 18 19 20 22 23 22 19 18 18 20 23 25 26 26 25 23 22 21 21 21 22 23 23 24 24 25 26 26 27 28 29 30 31 31 30 29 29 29 30 32 33 34 33 32 30 29 27 27 27 28 31 36 41 45 45 44 44 45 45 45 45
16 15 15 15 15 16 16 17 17 17 16 15 14 14 15 17 17 17 17 18 19 20 21 21 20 20 20 20 21 21 20 18 18 20 22 24 26 26 26 25 25 24 23 22 22 22 23 23 23 23 24 25 25 26 27 28 29 30 31 31 31 31 30 31 32 33 34 34 32 31 29 28 28 28 29 31 36 41 46 47 47 47 46 45 45 45
15 14 14 14 14 15 15 16 15 15 15 15 15 15 17 18 18 18 17 18 19 20 20 20 20 20 20 19 18 17 17 18 19 20 22 24 25 25 25 24 25 24 24 23 22 22 22 21 22 23 23 24 25 26 27 27 28 29 30 31 32 32 32 31 32 34 35 34 32 30 29 28 28 28 30 33 37 42 47 49 50 49 48 46 46 45
14 13 12 12 13 14 15 15 15 15 15 16 17 17 18 18 18 17 17 17 19 20 19 19 19 20 18 16 15 14 15 17 18 19 21 24 25 25 24 23 23 23 23 22 22 22 21 21 21 22 23 23 24 25 26 27 27 28 29 31 33 33 33 32 33 34 36 35 33 31 29 28 28 28 31 34 39 44 48 50 51 50 49 47 46 46
14 13 11 11 13 14 15 15 15 15 17 18 18 18 18 17 17 17 17 17 18 18 17 16 16 16 16 15 13 13 15 17 18 19 20 23 25 26 23 22 22 22 22 21 21 22 22 21 21 21 22 23 24 25 26 27 27 26 27 30 32 34 34 33 34 35 37 37 35 33 31 30 28 28 31 35 41 45 49 51 51 50 48 46 45 46
14 13 12 12 13 14 16 16 16 17 17 18 18 17 17 16 17 17 17 17 17 16 14 13 9 7 10 15 15 13 15 18 20 20 21 21 24 25 23 21 21 21 21 21 21 22 22 22 22 22 23 24 25 26 27 27 27 26 27 29 31 33 34 34 34 36 38 38 37 36 34 32 30 28 31 36 42 47 50 51 51 49 46 44 44 46
14 13 13 12 13 15 16 16 17 17 18 17 17 17 17 16 17 17 17 16 15 14 13 13 10 6 5 9 14 16 17 19 21 21 21 21 22 24 24 21 20 20 20 20 21 21 21 22 23 23 24 25 26 27 28 29 28 27 27 28 31 33 34 35 35 37 38 38 38 37 35 33 30 28 31 37 43 48 50 50 49 47 44 43 44 45
14 14 14 14 15 16 17 17 16 16 16 17 17 17 18 18 17 17 16 16 15 14 14 12 12 12 11 14 17 20 19 20 21 21 20 20 22 23 24 21 19 18 19 19 20 21 22 23 24 25 26 26 27 28 30 30 29 28 27 28 31 33 34 35 36 37 37 38 37 37 35 33 30 28 31 37 43 47 49 49 47 45 43 43 43 45
15 16 15 16 17 17 17 18 17 17 17 18 19 19 19 18 18 17 16 16 15 15 14 13 14 15 16 18 20 21 20 20 20 20 20 20 21 22 21 19 17 17 18 20 22 23 24 25 27 27 27 28 28 30 31 31 31 29 28 29 31 34 35 36 36 37 37 37 37 37 35 32 29 28 32 38 43 46 47 47 45 43 42 42 43 45
17 17 18 17 17 17 17 19 19 18 18 19 20 20 20 19 18 16 15 15 15 15 15 14 15 17 18 19 21 21 21 20 19 18 18 19 19 19 18 16 15 17 20 23 25 25 25 27 28 29 29 30 30 31 33 33 32 31 30 30 32 34 36 37 37 36 36 37 37 36 34 31 28 29 33 38 43 45 46 45 43 42 41 42 43 44
18 18 19 19 19 19 20 21 21 21 21 21 21 20 20 18 17 16 16 15 15 15 16 16 18 19 20 20 21 22 22 20 18 17 16 15 17 18 16 16 17 19 21 23 25 26 27 29 31 32 32 31 32 33 34 35 34 33 31 30 31 34 37 38 37 36 36 37 37 36 33 30 28 29 34 39 42 44 45 44 42 41 41 42 43 44
19 19 20 20 20 20 21 21 22 22 22 22 22 22 21 20 18 17 16 16 16 17 18 19 19 19 19 19 20 21 21 19 17 16 14 10 13 17 17 18 18 18 20 22 24 26 30 32 33 33 33 33 33 34 35 36 35 33 31 30 30 33 36 38 37 36 37 38 37 35 32 29 28 30 35 38 41 43 44 43 42 41 41 42 43 43
19 20 20 19 19 19 19 20 20 21 21 21 22 22 20 18 17 17 17 17 18 18 18 18 18 19 19 19 19 19 18 16 15 14 13 11 13 17 18 17 17 18 19 22 24 27 31 33 33 33 33 33 35 36 37 37 35 32 30 30 30 32 36 37 37 37 38 38 36 33 30 28 28 31 35 38 40 41 42 42 41 41 41 41 42 42
18 18 19 18 18 19 19 20 20 20 19 18 17 16 16 16 17 18 18 17 16 15 15 15 16 16 17 17 16 16 16 14 13 13 12 11 14 17 17 16 16 17 19 23 26 29 30 32 33 33 33 35 36 38 38 36 32 30 29 29 30 33 36 37 38 38 38 37 35 31 29 27 29 33 35 37 39 40 41 41 41 40 40 40 41 41
18 18 18 19 19 19 20 20 20 19 19 19 19 19 20 19 18 17 15 12 11 11 12 13 12 13 15 15 14 14 14 14 13 13 12 11 13 15 16 15 15 17 19 24 27 28 28 30 32 33 34 36 38 38 36 30 26 26 28 29 30 33 35 36 37 38 37 35 32 29 27 28 30 34 36 37 38 39 40 40 40 40 40 40 40 40
17 18 18 18 18 18 18 18 18 18 18 18 18 18 18 18 15 11 9 8 8 10 11 8 8 9 12 12 12 13 15 15 14 13 12 12 12 13 14 15 15 17 19 22 25 26 26 27 30 33 33 34 34 32 28 23 21 23 27 29 31 33 34 36 36 37 36 33 30 28 27 29 31 34 36 37 38 39 39 40 40 39 39 39 39 40
17 17 17 17 17 17 17 17 17 17 16 16 16 16 16 15 12 9 8 9 9 9 9 7 6 6 6 8 11 15 16 15 13 11 10 10 10 11 14 15 16 17 18 20 24 26 25 25 27 29 29 28 27 26 25 22 22 25 28 30 31 33 34 35 36 35 33 31 29 28 28 30 32 34 35 36 37 38 39 39 39 39 39 39 39 40
18 18 18 17 17 17 17 17 17 16 15 15 15 15 14 13 11 10 10 10 10 10 9 9 9 8 7 11 14 15 15 13 10 8 8 9 10 11 14 14 15 16 16 18 20 21 21 22 22 22 22 23 25 26 25 22 23 27 28 29 30 32 34 35 35 34 32 30 28 28 29 31 32 33 35 36 37 38 39 39 39 39 40 40 40 40
20 20 19 18 18 17 17 18 17 16 15 14 14 13 13 12 11 11 12 11 11 10 10 10 11 10 11 11 10 10 9 9 7 6 9 9 9 11 13 13 14 14 15 14 11 10 13 17 19 18 19 23 25 25 21 16 19 24 25 24 26 29 32 34 34 33 31 29 28 29 30 31 32 33 34 36 37 38 39 39 40 40 40 40 39 38
20 20 19 19 19 18 18 18 17 16 16 15 14 13 12 12 12 13 13 12 12 11 11 11 11 11 11 7 4 3 3 8 9 9 11 10 9 11 13 13 13 13 13 10 6 4 7 10 15 19 22 26 29 28 22 13 13 19 20 19 21 25 30 33 34 33 31 29 28 29 31 32 33 33 34 36 37 39 39 40 41 41 40 39 37 35
19 18 18 18 19 18 18 17 17 17 17 16 15 14 14 13 13 13 13 13 13 13 13 13 12 12 12 9 7 5 5 11 14 13 13 10 11 12 13 12 13 13 13 10 7 5 4 4 11 21 27 30 31 29 23 14 9 15 18 17 17 20 27 32 35 34 32 30 29 30 31 32 33 34 35 37 38 39 40 41 42 42 40 38 36 34
18 18 18 18 18 18 17 17 17 17 16 16 16 16 15 15 14 14 14 14 15 15 14 14 13 13 13 13 13 13 14 17 18 16 14 11 11 11 12 12 13 13 14 12 11 9 7 7 13 21 27 29 30 28 24 16 9 13 18 17 14 15 23 31 35 35 33 31 30 31 32 33 33 35 36 38 39 40 41 42 43 43 41 39 36 35
18 17 17 17 17 17 17 16 16 16 16 16 16 16 16 16 16 16 16 16 16 16 16 16 15 14 13 13 14 15 18 19 18 16 13 12 11 11 13 13 13 13 13 12 11 11 11 13 16 18 20 24 27 27 24 20 13 10 16 15 11 11 19 29 35 35 33 31 31 33 35 35 35 36 37 39 40 41 42 43 44 44 42 40 37 35
17 17 16 16 16 16 16 16 16 16 16 16 16 16 17 17 17 18 17 17 17 17 17 17 17 17 16 14 14 15 17 18 18 16 14 14 13 13 13 13 13 13 12 11 11 10 10 14 16 16 15 18 22 23 22 20 15 9 10 12 10 10 16 27 34 35 33 31 32 34 36 37 37 37 39 40 41 42 43 44 45 44 42 41 40 38
17 17 17 17 16 16 15 15 15 15 15 16 17 18 18 18 18 18 18 18 17 17 18 18 19 19 19 18 18 18 19 21 22 20 18 17 16 15 14 14 14 14 12 12 12 11 10 12 15 17 15 13 13 16 20 20 16 10 7 7 7 9 14 24 32 34 32 31 32 34 37 38 38 39 40 41 42 43 44 45 45 44 42 41 41 40
17 17 17 17 17 17 16 16 16 15 15 16 17 18 19 19 19 19 19 19 18 18 18 18 18 19 19 20 21 22 23 24 24 24 22 21 20 18 16 16 17 17 15 14 14 14 13 11 11 12 13 10 8 10 15 22 21 17 13 6 3 7 12 20 28 32 32 31 32 34 37 39 39 39 40 42 43 43 44 44 43 42 41 41 40 39
16 16 17 18 18 18 18 18 17 17 17 17 18 19 19 19 19 19 18 18 18 18 18 18 18 18 18 19 20 22 24 24 24 24 23 22 22 22 20 19 20 20 19 18 17 16 14 9 7 7 7 9 11 14 17 20 19 18 17 12 4 5 11 16 23 29 32 32 32 33 36 38 39 39 39 41 42 42 41 40 40 39 39 39 38 37
15 16 17 17 18 18 18 18 19 19 19 20 20 19 19 19 18 18 18 18 17 17 17 17 17 18 18 18 18 19 20 21 21 21 20 20 21 21 22 21 22 22 22 21 20 18 16 12 8 6 5 8 12 16 19 19 17 17 18 15 8 5 10 13 18 24 29 32 32 32 34 36 37 37 38 39 39 39 37 37 37 38 38 36 35 34
16 16 16 17 18 18 18 18 19 20 21 21 21 20 19 18 18 18 17 17 17 16 16 16 16 17 17 16 16 16 16 16 17 17 17 17 18 19 20 21 22 22 22 21 20 19 18 15 14 13 13 10 12 15 18 18 19 19 18 13 8 4 8 11 14 19 25 30 32 32 33 35 36 36 37 37 37 36 36 36 36 37 37 36 34 33
16 16 17 17 18 18 18 19 19 20 20 20 20 19 19 18 18 17 17 17 17 16 16 16 16 16 15 15 14 13 13 13 13 13 13 13 13 14 16 18 20 21 21 20 20 20 19 17 16 16 16 15 16 17 18 19 20 20 16 10 7 5 6 9 11 16 22 27 31 33 33 34 35 35 34 34 34 35 36 36 36 36 36 36 35 34
17 17 17 18 18 19 19 19 19 19 18 18 17 17 17 17 17 17 16 16 17 17 17 16 16 16 16 15 14 13 12 11 11 11 11 11 11 12 13 15 17 18 19 19 19 20 19 18 17 17 17 17 16 15 16 19 21 21 16 12 8 4 7 10 11 14 19 24 29 32 32 32 31 31 30 30 30 32 34 35 35 35 35 34 34 34
17 17 18 18 19 19 19 19 18 18 18 17 16 16 17 17 17 16 15 15 16 16 17 16 16 15 15 15 15 14 14 12 11 11 11 11 11 12 13 14 15 16 17 18 18 18 18 17 17 17 18 19 17 15 15 17 19 19 17 13 7 3 5 7 9 12 17 22 27 30 31 31 29 28 28 28 28 30 32 33 34 34 34 33 32 31
17 17 18 18 19 19 19 19 18 18 18 16 16 16 17 18 17 16 15 15 15 16 16 16 16 14 13 13 14 15 16 15 14 13 13 12 13 13 14 14 14 14 14 16 17 16 16 16 16 18 20 19 17 16 15 15 16 17 15 8 4 6 5 5 7 11 15 20 25 28 30 30 30 29 28 27 28 30 31 32 32 33 33 32 32 31
17 18 18 18 19 19 19 19 19 19 18 17 16 16 17 17 17 16 15 15 15 16 16 16 14 13 11 12 13 15 16 17 17 16 16 15 14 14 14 14 14 13 12 13 15 16 15 15 17 19 21 19 16 13 12 13 15 15 10 4 8 9 9 9 10 13 16 20 24 27 29 31 32 31 28 28 28 30 31 32 32 32 32 32 32 31
18 18 19 19 19 19 19 19 19 19 18 17 17 17 17 17 17 16 15 15 15 15 15 15 13 11 10 11 13 14 15 16 18 19 20 19 18 17 16 15 13 12 11 12 12 13 14 15 17 19 20 18 14 11 10 11 12 11 5 6 10 11 11 11 12 14 16 19 23 26 30 33 33 30 27 27 27 29 31 32 33 33 33 33 33 33
18 19 19 19 19 19 19 19 19 19 18 18 17 17 17 17 17 16 16 16 15 15 14 14 13 12 11 12 12 13 13 14 16 18 20 21 21 20 19 17 14 11 10 9 10 10 10 11 14 16 17 15 12 10 9 9 8 6 4 8 10 10 10 9 10 11 14 17 20 24 29 31 30 27 25 25 26 27 28 30 32 33 34 34 34 34
18 19 19 19 19 19 19 19 19 19 19 18 18 18 18 17 17 16 16 16 15 15 14 14 13 12 12 12 13 13 13 13 14 16 17 20 21 22 21 20 17 13 10 7 6 7 8 8 10 12 14 13 11 9 10 10 9 6 7 9 10 10 9 10 9 10 11 14 17 21 26 29 29 27 25 25 24 24 25 27 29 31 33 35 35 35
18 18 19 19 19 19 19 19 19 19 19 19 19 19 18 18 17 16 16 15 15 14 14 14 13 13 12 12 13 14 14 13 14 15 16 18 19 21 22 22 20 17 14 10 7 6 6 6 8 10 12 13 12 11 11 11 10 9 10 11 11 10 10 10 10 10 10 11 13 17 21 26 29 30 28 25 22 21 23 24 25 28 32 34 35 35
17 18 18 19 19 19 19 19 19 19 19 19 19 19 19 18 17 17 16 15 15 14 14 14 13 13 12 13 14 14 14 14 14 15 16 17 18 19 20 20 20 18 16 13 10 7 6 6 6 10 15 18 17 14 13 12 11 11 12 12 11 10 10 10 11 12 13 14 15 17 20 24 28 31 30 27 23 22 22 22 22 24 28 33 35 35
18 18 18 19 19 19 19 19 19 19 19 19 19 19 18 18 18 17 17 16 15 15 14 14 14 13 12 13 14 14 14 14 14 15 15 17 18 18 19 18 17 15 13 10 7 5 4 4 5 8 16 23 23 20 18 15 13 12 12 12 11 10 11 12 13 14 16 16 16 17 19 22 26 29 29 27 24 21 20 20 20 21 25 30 33 33
Wind_Direction
309 310 313 315 315 315 313 313 313 312 312 313 313 314 316 318 319 319 319 318 317 317 316 316 316 316 316 317 316 313 310 307 304 301 300 300 301 301 300 297 294 291 288 287 286 286 287 287 287 286 287 287 287 286 283 282 282 281 279 275 273 273 274 273 273 272 270 263 250 236 227 223 222 221 221 222 224 228 230 227 224 223 222 221 218 216
310 311 313 315 316 314 312 312 312 311 310 309 310 311 315 318 319 319 319 318 317 316 315 315 315 315 316 318 317 314 310 308 306 304 303 303 303 302 300 296 294 291 289 288 287 287 287 287 286 285 284 284 283 282 280 279 279 278 277 273 271 270 270 271 271 271 269 265 255 242 231 225 223 221 220 219 220 223 226 226 226 226 225 222 219 217
311 313 314 315 316 314 312 311 311 309 306 305 306 309 313 317 318 318 318 317 317 316 315 315 315 315 316 318 317 314 310 308 307 306 305 305 305 303 300 297 295 294 292 291 289 288 287 287 286 285 284 282 281 279 277 276 276 278 277 274 269 267 268 269 270 270 270 264 256 245 236 229 225 222 220 218 217 219 222 224 225 227 227 224 220 218
311 313 315 316 315 313 310 310 309 307 304 303 305 309 314 316 317 316 316 316 315 315 315 315 315 316 316 317 317 314 310 308 307 307 307 306 305 303 301 298 296 295 294 292 289 287 286 286 285 285 284 283 281 278 275 274 275 277 277 274 269 266 266 268 269 269 269 267 262 252 242 232 227 223 221 218 216 216 219 222 225 227 227 224 221 218
311 313 314 315 314 312 310 309 308 306 305 305 307 312 315 316 315 315 315 315 315 315 315 315 316 316 316 315 315 313 309 307 307 307 308 307 306 304 301 299 297 295 293 291 289 287 285 283 283 282 283 283 282 279 275 273 273 275 276 274 269 265 265 267 268 268 268 268 266 260 249 237 229 224 221 218 216 215 217 221 225 227 227 224 221 218
311 312 313 313 312 310 310 309 308 307 307 309 311 314 315 315 315 315 315 315 315 315 314 315 316 316 315 313 312 310 308 308 308 309 309 308 306 304 303 300 298 295 293 291 288 286 284 281 279 279 279 279 279 278 276 274 273 274 275 274 269 264 263 265 266 267 266 266 266 264 257 245 233 226 221 218 215 214 215 220 224 227 227 225 222 219
310 311 312 312 310 309 309 308 308 308 309 312 314 315 315 315 315 315 315 315 315 315 315 315 315 315 314 312 310 309 310 311 311 312 311 309 307 306 305 303 299 296 293 290 288 285 283 280 278 276 276 276 276 276 276 274 273 272 273 273 269 264 262 263 264 265 265 265 265 264 261 253 240 229 222 218 215 213 213 218 223 226 227 225 223 220
310 311 313 312 312 310 309 308 308 309 311 314 315 316 316 316 316 315 315 315 316 316 316 316 316 315 313 312 312 312 312 313 314 314 312 310 309 309 308 306 303 299 296 292 289 286 284 281 278 275 274 274 273 273 274 273 271 270 270 270 267 263 261 261 262 262 262 262 263 263 262 257 246 234 224 218 214 212 212 215 219 223 225 225 223 222
309 311 312 312 311 310 309 308 308 310 312 314 314 314 315 316 317 317 318 318 318 318 319 318 317 315 313 312 312 313 313 312 312 311 309 309 309 310 310 309 307 303 299 295 292 289 285 282 278 275 273 272 271 271 270 269 268 266 266 265 262 259 258 258 259 260 260 260 260 261 261 258 251 240 228 220 215 212 210 212 216 219 221 222 222 222
309 310 310 310 309 308 307 307 308 310 312 312 311 310 311 315 318 320 320 319 319 320 320 319 317 315 314 313 313 313 313 312 309 307 306 306 308 310 312 312 310 306 302 297 293 289 286 283 279 276 273 272 270 269 268 267 265 264 262 260 257 254 254 255 256 257 258 258 258 259 260 258 254 245 233 223 217 212 210 211 213 216 219 221 221 221
311 310 309 308 307 307 306 305 307 309 311 311 311 311 312 316 320 321 320 318 319 320 320 318 315 313 312 312 312 313 313 312 310 308 307 309 311 313 315 314 312 308 304 299 293 289 285 283 280 278 275 273 271 269 268 266 264 261 259 256 252 250 250 252 254 255 256 256 256 257 258 258 255 249 239 228 219 214 211 210 212 215 218 220 221 221
310 309 307 306 307 308 308 307 308 310 312 314 315 316 317 319 320 319 316 315 316 317 318 316 313 311 309 308 309 311 312 312 311 311 312 313 316 318 320 318 316 312 308 302 294 288 285 283 281 279 277 274 272 270 268 266 263 260 257 253 249 247 247 249 252 254 254 254 254 255 257 257 256 252 244 232 222 216 212 211 211 214 217 220 221 221
308 306 304 304 306 308 309 310 311 313 314 316 317 317 317 317 318 316 312 310 311 314 315 314 312 309 308 307 307 309 311 312 312 313 315 316 319 321 322 321 319 317 314 308 299 291 287 286 284 281 278 275 272 270 268 266 263 259 255 250 247 245 245 247 250 252 253 253 253 255 256 257 256 253 245 234 223 217 213 212 212 214 216 219 220 221
307 305 304 305 306 307 308 310 311 312 312 313 313 312 312 313 314 313 312 310 310 311 312 310 309 308 308 308 308 310 313 315 316 317 317 317 318 321 321 319 317 317 316 311 304 297 293 292 290 286 280 277 273 270 267 265 263 259 253 249 246 244 244 245 248 250 251 251 252 255 257 258 257 252 243 232 223 216 214 213 214 215 217 218 219 220
307 308 307 306 306 306 307 308 308 308 308 309 309 309 309 309 310 312 312 311 311 311 311 309 309 309 308 308 310 314 319 322 321 320 317 316 317 319 320 317 314 314 313 309 304 301 298 298 295 291 286 281 275 271 268 267 265 260 254 249 246 244 243 244 246 248 249 249 251 255 258 260 259 252 241 230 221 216 214 214 216 217 218 218 219 219
308 308 306 304 304 304 305 306 306 306 306 306 306 306 305 306 308 310 310 309 309 310 311 312 312 312 310 310 313 319 325 327 325 320 317 313 314 317 318 315 311 309 309 306 304 304 303 301 298 294 290 285 278 272 270 270 268 265 259 253 249 245 244 244 245 247 248 248 251 255 259 262 260 252 239 228 220 216 214 215 216 217 218 218 219 219
305 304 303 302 302 302 303 304 303 303 303 303 302 301 301 302 303 305 305 305 306 308 309 312 313 313 312 312 313 320 329 329 325 320 315 310 310 313 316 313 308 305 305 303 303 304 304 302 299 295 291 286 280 275 272 271 269 267 264 260 255 250 246 245 245 247 247 249 251 255 260 262 260 251 237 226 219 216 215 215 216 217 217 218 218 218
303 302 301 300 300 300 301 301 300 300 299 299 298 298 298 297 297 298 299 300 301 302 304 307 307 306 307 308 309 314 325 327 324 318 313 307 306 309 313 311 306 301 300 300 300 301 300 299 296 293 291 287 282 276 272 270 268 265 264 264 260 255 249 246 245 246 248 249 252 256 259 261 258 248 234 223 217 215 215 215 216 216 216 217 217 218
302 301 299 298 297 297 297 296 295 295 294 295 296 297 298 296 294 293 292 293 294 294 297 300 302 300 298 298 301 308 318 323 321 315 310 305 303 305 310 309 305 300 298 297 298 299 298 297 295 293 291 287 282 276 272 270 267 263 262 263 262 257 251 247 246 247 248 250 253 256 259 259 254 243 228 219 216 215 215 215 215 215 215 216 217 218
299 297 294 293 293 293 291 290 289 288 288 291 293 293 294 292 292 290 287 288 288 289 292 295 296 296 296 295 298 305 314 319 318 312 305 301 299 301 306 307 305 301 299 297 299 300 301 300 298 296 292 287 281 276 273 270 266 262 259 261 261 257 251 247 245 245 247 250 253 256 258 257 250 237 223 216 214 214 214 214 213 213 214 215 217 217
293 290 288 286 286 286 286 287 286 284 284 286 287 287 288 288 288 286 285 286 287 289 292 292 293 293 294 295 297 303 310 314 312 307 302 299 296 297 301 306 307 305 302 301 303 305 306 304 300 296 292 287 282 277 273 270 266 261 257 257 257 255 249 245 243 244 246 249 253 256 257 254 245 230 218 213 212 213 213 213 213 213 214 215 217 217
286 285 286 284 281 280 282 283 282 283 283 282 280 279 280 281 282 284 285 285 288 291 293 292 291 292 292 292 295 300 305 307 303 299 297 295 293 294 301 308 312 309 304 304 306 309 309 306 301 296 291 286 282 277 274 271 266 260 254 253 252 250 245 242 241 243 245 249 252 255 255 250 238 223 213 210 210 211 212 212 212 213 214 216 217 217
285 285 286 285 282 280 280 280 281 283 283 278 273 271 272 273 275 278 282 286 289 291 293 293 293 293 293 294 296 299 302 302 299 294 292 289 292 297 304 312 315 311 304 305 308 311 310 307 302 297 291 286 281 276 273 270 265 258 250 246 245 244 241 239 239 241 245 248 251 253 252 244 231 217 209 207 208 209 211 212 213 214 215 217 218 218
294 293 293 293 292 292 290 289 289 289 288 284 280 278 278 280 284 287 290 292 293 294 296 298 298 297 296 297 298 299 300 301 298 294 291 289 291 295 303 312 315 311 305 307 310 312 311 307 301 296 290 284 279 274 272 269 263 254 243 237 236 237 237 236 237 240 244 248 251 251 248 237 222 211 206 205 206 208 210 211 213 215 216 217 218 218
304 305 306 306 306 305 303 302 302 302 303 304 305 308 309 306 303 300 298 296 297 300 303 305 302 299 299 300 299 299 300 302 300 296 292 289 289 293 301 310 314 311 308 309 312 313 312 308 302 295 289 283 277 273 270 266 258 245 233 228 229 231 233 234 236 239 243 247 249 248 242 229 214 206 203 204 205 207 209 211 213 215 216 217 218 218
311 311 311 310 309 307 306 305 305 305 307 310 312 313 312 308 304 300 298 299 304 310 310 305 300 297 298 299 299 299 302 305 302 294 288 288 291 295 302 311 316 314 310 311 313 314 312 308 303 297 289 282 277 273 269 261 246 230 224 223 225 228 231 233 236 239 243 246 246 243 234 220 208 202 202 203 205 206 209 211 213 214 216 216 217 218
318 317 316 314 312 311 310 309 307 306 305 306 306 306 306 307 308 309 309 313 318 317 309 302 296 296 298 298 297 300 304 304 300 292 286 288 291 296 302 313 319 318 314 312 312 312 310 305 301 296 290 282 277 274 271 260 240 225 222 224 226 228 230 233 236 239 241 242 241 236 227 214 205 200 201 202 204 206 208 210 212 213 214 215 215 216
324 323 321 320 319 317 317 316 315 312 310 308 306 305 307 314 319 318 312 315 317 312 300 292 290 294 298 299 300 302 303 300 294 289 290 297 296 295 302 313 319 319 317 314 314 313 309 302 298 295 291 285 283 283 281 266 247 233 227 226 227 228 230 232 235 236 237 237 235 230 221 210 203 200 200 202 204 206 207 209 210 211 212 212 212 212
328 326 324 323 322 322 321 322 321 318 315 312 310 310 314 319 320 315 309 311 310 302 292 289 290 293 297 300 302 302 300 294 287 289 306 312 303 296 304 313 318 320 322 321 319 317 311 303 299 297 292 288 290 292 287 264 239 227 225 226 228 230 231 232 232 232 232 231 229 224 216 208 202 200 200 202 204 205 207 208 208 209 209 209 208 208
329 327 325 323 323 323 323 324 323 321 319 317 315 315 316 318 315 310 306 305 301 294 289 289 291 293 298 301 303 301 297 291 288 303 319 320 307 300 307 311 314 319 327 330 327 319 311 307 303 298 293 292 298 302 299 265 227 217 221 227 232 234 234 232 230 227 226 225 223 219 212 206 202 201 201 202 203 204 205 206 206 206 205 204 203 203
325 323 321 321 321 322 323 324 325 324 325 324 323 322 320 318 313 309 305 300 294 289 287 288 289 291 293 298 300 298 296 290 293 305 316 314 303 299 304 307 309 315 324 331 332 316 312 310 309 306 303 303 306 310 312 292 232 214 221 232 238 239 235 231 227 223 221 221 219 214 209 204 202 201 201 202 202 203 203 203 203 201 198 197 197 197
322 320 318 318 319 321 323 324 325 326 327 327 328 327 324 319 313 308 303 296 290 285 283 283 284 284 284 282 280 280 281 284 288 296 305 302 295 295 298 301 304 308 313 314 306 295 302 309 311 310 309 308 309 312 316 308 249 218 222 232 237 234 229 224 221 219 218 218 215 211 206 203 202 201 201 201 201 201 200 201 199 196 192 191 190 191
321 319 318 318 319 321 322 323 325 326 327 327 327 327 325 321 315 309 303 297 291 284 279 278 279 280 279 278 276 276 277 279 283 289 295 293 291 292 295 298 301 304 307 303 294 285 281 286 298 303 305 306 307 311 315 313 274 227 222 226 227 222 217 214 213 213 214 213 210 207 205 204 203 202 200 199 198 198 198 198 196 193 189 187 185 185
323 322 321 321 321 322 323 325 327 328 328 328 327 326 324 322 317 312 306 301 294 287 280 275 273 274 277 278 278 277 277 278 282 286 288 287 286 288 293 295 297 299 303 302 297 289 284 283 288 295 301 305 306 307 308 311 301 254 225 220 215 205 202 204 205 207 207 205 202 201 201 202 202 201 199 197 195 195 195 194 193 190 186 184 182 180
328 327 327 326 326 326 326 327 328 329 329 329 328 327 324 322 319 315 311 305 299 292 285 279 273 270 270 273 276 278 278 280 283 286 285 282 281 285 290 290 291 293 296 296 295 293 288 283 284 287 294 303 305 303 303 310 313 291 239 221 206 187 187 194 197 198 197 194 192 193 196 198 198 197 196 194 193 192 192 191 189 187 185 183 182 179
332 333 334 333 331 330 329 329 329 329 329 329 329 328 326 323 320 317 313 309 303 297 290 284 279 274 270 268 268 271 274 280 284 286 284 281 279 280 283 283 284 286 287 287 286 285 284 284 283 284 288 294 298 299 302 313 322 321 284 234 193 168 171 183 188 190 188 185 184 186 190 192 193 192 192 191 189 188 187 186 185 183 183 182 182 180
336 337 337 337 335 333 332 331 330 330 329 328 328 328 327 324 322 319 316 313 309 303 297 291 286 281 277 272 270 270 274 280 284 287 286 283 279 276 273 276 278 278 275 275 276 278 280 283 284 285 286 285 288 298 308 315 322 326 315 294 189 142 145 168 180 183 181 179 179 181 185 188 188 188 188 187 186 183 182 181 180 180 180 180 180 179
339 339 339 338 336 335 333 332 331 329 328 326 326 326 326 324 323 322 319 317 314 310 306 300 296 292 288 282 278 277 279 281 285 288 289 287 282 276 270 270 273 272 269 265 266 269 274 278 284 286 284 289 296 302 304 309 314 317 316 314 329 105 123 150 167 175 176 176 175 177 180 182 182 181 180 179 177 175 174 174 175 175 176 176 176 176
339 338 338 338 337 335 332 330 329 327 327 327 327 327 327 327 327 326 324 322 320 317 313 308 304 301 299 295 290 285 283 284 286 289 291 290 286 279 273 270 269 271 270 267 265 264 265 267 272 278 287 297 304 307 308 305 305 310 317 320 334 59 103 131 153 166 171 173 173 172 174 175 174 172 170 169 168 167 166 167 168 169 170 170 170 171
339 338 338 338 337 334 331 328 327 326 327 328 330 331 332 332 331 331 330 328 326 323 321 317 313 309 306 302 299 295 292 291 292 294 295 294 291 286 280 274 273 274 275 273 269 265 262 262 264 267 274 285 294 300 305 301 300 304 312 316 327 23 79 111 138 156 167 171 172 171 170 171 170 167 164 163 162 162 161 161 162 164 166 165 163 163
339 338 337 337 336 334 332 329 328 327 327 328 331 333 335 335 334 333 333 331 330 328 327 325 322 318 315 313 310 308 306 305 304 303 302 301 299 295 289 284 281 281 280 279 277 273 269 265 264 268 274 281 288 292 292 293 296 300 303 299 303 339 59 95 124 147 160 168 171 171 170 170 169 168 165 162 160 160 160 160 160 161 164 165 164 162
339 337 336 335 335 333 332 331 331 330 330 331 332 334 336 336 335 334 332 331 330 329 329 328 326 323 321 321 322 323 323 322 321 318 316 315 313 309 303 297 293 290 287 284 282 279 276 273 271 273 276 280 284 285 286 289 295 302 305 299 303 350 72 86 110 136 151 160 166 169 169 168 167 166 165 162 159 158 159 159 159 160 161 163 165 165
338 336 335 335 334 334 335 335 335 334 334 334 334 335 338 339 339 337 334 332 330 329 330 331 329 326 323 323 326 331 335 339 340 337 333 330 328 324 318 313 307 302 295 289 284 282 283 283 283 285 290 289 283 278 280 283 290 300 310 311 318 19 63 76 100 124 140 151 157 161 163 163 163 162 161 159 158 157 157 157 158 159 160 161 162 164
338 336 337 336 337 338 340 340 339 338 337 335 336 338 340 342 342 340 338 335 332 331 331 332 332 331 328 327 329 331 335 343 348 348 346 343 339 335 330 325 321 315 306 295 286 283 287 293 299 304 306 300 286 272 268 274 284 294 309 327 35 73 73 90 107 116 127 137 146 152 155 157 156 155 154 153 154 155 155 155 155 156 158 159 160 161
341 340 340 340 341 342 342 341 340 339 338 337 338 339 341 343 344 343 342 338 335 334 334 335 335 335 333 334 334 334 335 340 346 349 351 351 349 344 340 336 332 325 314 302 293 288 288 293 305 316 320 313 299 281 272 272 281 292 308 37 82 84 90 105 112 113 117 125 133 140 146 149 150 148 144 144 146 149 152 153 153 153 155 157 158 158
345 344 343 343 343 343 342 342 341 340 340 340 340 341 342 344 345 346 345 342 338 335 336 338 339 338 336 336 336 337 336 336 339 343 347 350 352 352 350 347 343 332 317 303 293 289 291 296 306 314 321 327 324 308 292 286 287 295 341 77 88 86 89 98 106 111 116 120 126 132 139 144 144 141 136 134 137 141 147 151 152 153 154 155 157 158
347 346 344 343 343 342 342 343 343 343 342 342 341 342 343 345 347 348 347 346 342 340 339 342 343 341 339 339 339 338 336 334 334 336 340 344 347 350 353 354 352 343 328 308 292 286 292 309 315 316 318 327 331 330 329 328 319 321 41 88 93 86 76 78 91 104 110 115 122 130 136 139 138 134 129 127 127 131 137 144 149 152 154 156 157 157
347 346 345 344 343 343 343 344 344 344 343 342 342 342 343 345 347 349 348 348 346 345 344 344 344 343 342 342 341 340 336 333 331 332 335 339 342 345 350 354 356 355 350 333 308 293 296 317 330 331 326 327 328 330 336 349 3 35 84 99 98 85 66 62 76 96 105 111 121 131 137 139 137 132 126 122 120 121 125 134 142 149 153 156 157 157
347 347 347 346 345 344 344 344 344 344 343 342 341 341 342 345 348 350 351 350 350 349 347 346 344 344 344 343 343 341 339 335 333 333 335 337 339 342 346 350 352 354 355 356 349 330 316 321 345 358 354 349 346 345 345 360 25 60 92 102 97 82 65 59 70 88 102 107 117 128 137 139 139 135 129 123 118 115 116 123 133 143 150 155 156 157
349 349 349 348 347 346 345 345 345 344 343 342 340 340 341 344 348 352 354 355 354 354 351 349 347 345 344 344 344 343 341 338 336 335 336 338 339 340 342 346 347 347 346 348 350 345 336 322 344 10 16 17 15 11 8 14 35 63 85 92 90 81 69 63 69 84 98 104 108 116 126 132 135 135 132 127 120 115 113 116 124 135 145 152 155 156
349 350 350 350 348 347 346 345 345 344 344 342 341 340 341 343 347 352 356 358 358 357 355 352 350 348 347 345 344 343 342 340 338 336 335 338 339 339 341 344 345 343 340 338 333 325 312 305 327 2 18 25 27 28 25 24 35 53 69 74 78 79 74 68 71 81 93 99 103 106 114 122 128 131 131 128 123 118 114 114 118 127 138 147 151 153
Height
732 730 728 727 726 724 722 721 720 718 716 713 712 710 709 707 706 705 704 703 701 700 699 697 696 694 693 692 691 690 690 689 689 688 688 687 686 686 685 685 684 684 683 683 682 682 682 682 682 682 682 682 682 682 681 681 681 681 682 682 683 683 683 683 683 683 684 684 684 685 686 687 688 689 691 693 695 697 698 700 701 703 705 706 709 711
731 729 728 726 725 723 721 720 719 718 716 713 711 710 708 706 705 704 702 701 701 699 698 696 695 693 692 691 689 689 688 688 687 687 686 686 685 685 684 683 683 682 682 681 681 680 680 680 680 681 681 681 681 681 680 680 680 680 681 681 681 682 681 681 682 682 682 682 682 683 684 685 686 687 689 691 693 695 696 698 700 701 702 705 706 709
730 728 726 726 724 723 721 719 718 717 715 713 711 709 708 706 705 703 701 700 699 698 697 696 694 692 691 689 688 687 687 686 686 686 685 684 683 683 682 682 681 681 680 680 679 679 678 678 678 678 679 679 679 679 679 679 679 679 680 680 680 680 680 680 680 681 681 681 681 681 682 682 684 685 687 688 691 693 695 696 698 699 701 702 705 706
729 728 726 725 723 722 721 719 717 716 714 712 711 709 707 706 704 703 701 700 698 697 696 695 693 692 690 688 687 686 686 685 685 684 683 682 682 681 681 680 679 679 679 678 678 678 677 676 676 676 676 676 677 677 678 678 678 678 679 678 678 678 678 678 678 679 679 680 680 680 680 681 682 683 685 686 688 691 693 695 696 697 699 701 702 705
729 728 726 724 722 721 719 718 717 715 713 711 710 708 707 706 704 702 700 699 697 696 695 693 692 691 689 687 686 685 685 684 684 683 682 681 680 680 679 678 678 677 677 677 676 676 676 675 675 674 673 673 674 675 676 677 677 677 677 676 676 676 676 676 677 677 677 678 678 678 679 679 680 681 683 685 686 688 691 693 695 696 697 699 701 703
728 727 726 724 722 721 719 717 716 714 712 710 709 707 706 705 703 701 700 698 697 695 694 692 691 690 688 687 686 684 684 683 682 681 680 679 679 678 677 677 676 676 675 675 675 674 674 674 673 673 672 671 671 671 672 674 674 675 674 674 674 674 674 674 675 675 676 676 676 677 677 678 679 680 681 683 685 686 688 691 693 694 696 697 699 701
727 726 725 724 722 720 719 717 715 714 712 710 708 706 705 704 702 701 699 698 696 695 693 691 690 689 687 686 685 684 682 681 680 679 678 677 677 676 676 675 674 673 673 672 672 672 672 672 672 671 671 670 670 670 670 670 671 671 671 671 671 672 672 672 673 673 674 674 675 675 676 676 677 678 679 681 683 684 686 689 691 692 694 696 697 699
726 725 724 723 721 720 718 716 715 713 712 710 708 706 704 702 701 700 698 697 696 694 692 690 689 687 686 685 684 682 681 680 678 677 676 676 675 674 673 672 672 671 671 670 670 670 670 670 670 670 669 669 669 669 668 668 668 668 668 668 669 670 670 670 671 671 671 672 672 673 674 674 675 676 677 679 681 682 684 686 689 691 692 694 696 698
726 724 722 722 721 719 717 715 714 713 712 711 709 706 704 702 700 698 697 696 695 693 692 690 688 686 685 684 683 681 680 679 678 677 676 675 674 673 672 671 670 669 668 668 667 667 667 667 667 667 667 667 667 667 667 667 666 666 666 666 667 668 668 668 669 669 670 670 671 671 672 673 673 674 676 677 678 680 682 685 687 689 691 693 694 696
725 724 722 721 720 719 717 715 713 712 711 710 709 707 705 703 700 698 696 694 693 692 691 690 688 686 684 682 681 681 679 678 677 676 676 674 673 672 671 669 668 667 666 666 665 665 665 665 665 665 665 665 665 665 665 665 665 665 665 665 665 666 666 666 667 667 667 668 668 669 670 671 671 672 673 675 676 678 680 682 685 687 689 691 692 694
724 722 721 720 719 718 717 715 713 711 710 709 708 706 705 704 702 699 696 694 692 691 691 690 688 686 684 682 680 679 678 677 676 675 674 673 672 670 669 667 666 665 664 664 663 662 662 662 662 662 663 663 663 663 662 662 662 662 663 663 663 664 664 665 665 665 665 666 666 667 668 669 669 670 671 672 674 676 677 680 682 685 686 688 690 692
723 721 720 719 718 716 716 714 712 711 710 708 707 705 704 703 702 701 698 695 692 691 689 688 687 686 685 682 680 679 677 676 675 674 672 671 670 668 667 665 664 663 662 661 661 660 660 660 660 660 660 660 660 661 661 660 660 660 661 661 661 662 662 663 663 663 663 663 664 665 666 666 667 668 669 670 671 673 675 677 679 681 684 686 687 689
722 721 719 718 717 716 715 713 712 711 709 708 707 705 704 703 702 701 699 696 694 692 690 688 686 684 683 682 681 679 677 676 675 673 671 669 668 667 665 664 662 661 660 659 658 658 658 658 658 658 658 658 658 658 658 658 658 658 658 659 659 660 660 661 661 661 661 661 662 662 663 664 665 666 666 667 669 670 672 674 676 679 681 683 685 687
721 720 718 717 716 715 714 713 712 711 709 708 707 706 704 703 701 700 698 696 694 692 691 688 686 683 682 681 680 679 677 676 674 672 670 668 667 666 665 663 661 660 659 658 656 656 656 656 656 656 656 656 656 656 656 656 656 656 656 656 657 657 657 658 659 659 659 659 660 660 661 661 662 663 664 665 666 667 669 671 673 676 678 680 682 684
720 719 718 716 716 715 714 713 712 711 709 708 707 706 704 703 701 700 698 696 694 692 690 687 685 683 681 680 679 678 677 676 674 671 669 667 666 665 664 662 661 659 658 656 655 654 654 655 654 654 654 654 654 654 654 654 654 654 654 654 654 655 655 656 656 656 657 657 657 658 658 659 659 660 661 661 663 664 666 668 671 673 675 677 680 682
719 718 717 716 715 714 713 713 712 711 709 708 707 706 704 702 701 700 698 696 694 691 689 687 684 681 679 679 679 678 677 675 673 671 669 666 664 663 663 662 660 658 656 655 654 653 652 652 652 652 652 651 651 651 651 651 651 651 652 652 652 652 653 653 654 654 654 655 655 656 656 656 657 657 658 659 660 661 664 666 668 670 672 675 677 679
719 718 717 716 714 713 713 712 711 710 709 707 706 705 703 702 700 699 698 696 694 691 689 687 685 682 679 677 677 677 677 675 673 671 669 666 663 662 662 661 660 657 655 654 653 652 651 651 651 650 650 649 649 649 649 649 649 649 649 649 650 650 651 651 651 652 652 652 653 653 654 654 654 655 655 656 657 659 661 663 665 667 670 672 674 676
718 717 716 715 714 713 712 711 711 709 708 706 705 703 702 701 700 698 697 695 693 691 689 688 686 684 681 677 676 676 676 676 673 671 668 665 662 661 661 660 659 656 654 653 652 651 651 650 649 649 648 647 646 646 646 646 646 646 646 646 647 648 648 649 649 649 649 650 650 651 651 651 651 651 652 653 654 656 658 660 662 665 667 669 671 674
717 716 716 715 713 712 711 710 709 708 707 705 704 702 701 699 698 697 696 694 693 691 689 687 686 684 682 679 676 676 676 676 674 671 668 665 661 659 659 659 657 655 653 652 651 650 650 648 647 646 645 644 644 644 644 643 643 642 642 643 644 645 645 646 646 646 646 647 647 648 648 648 648 648 649 650 651 653 655 657 660 662 665 667 669 671
716 715 715 714 712 711 710 709 708 707 706 704 703 701 699 698 696 695 694 692 691 690 688 687 685 683 681 679 676 676 676 676 674 671 668 664 661 658 658 657 656 654 652 650 649 649 648 646 645 643 642 641 641 641 641 641 640 640 639 639 641 642 643 643 643 643 644 644 645 645 645 645 645 645 646 647 649 651 653 655 657 660 662 664 666 668
715 713 713 712 711 710 708 706 706 705 704 703 701 700 698 696 695 693 692 691 689 688 687 686 684 682 681 679 676 675 676 676 675 672 668 664 660 657 657 657 656 653 651 648 647 646 646 644 642 640 639 638 638 638 638 638 637 637 636 636 637 639 640 640 641 641 641 641 642 642 642 641 641 642 642 644 646 648 650 652 655 657 660 662 664 666
713 711 710 710 709 708 706 704 703 703 702 701 700 698 696 694 693 691 690 689 688 687 686 684 683 681 680 678 676 675 675 676 674 672 668 663 658 656 656 656 655 652 649 646 645 644 643 641 639 637 635 635 635 635 635 635 635 634 633 632 633 635 637 637 637 637 638 638 639 639 639 638 638 639 640 641 643 646 648 650 652 655 657 659 661 663
711 710 708 707 706 705 704 702 701 700 700 699 697 695 694 692 691 690 689 688 687 686 684 683 681 680 679 677 676 675 674 674 673 671 669 663 658 655 655 655 653 651 648 646 644 642 640 638 635 634 632 632 632 632 633 632 632 631 630 629 630 631 633 634 634 635 635 635 635 635 635 635 635 636 637 639 641 643 646 648 650 652 655 657 659 661
710 708 707 706 705 703 702 701 700 698 697 696 694 693 692 691 691 689 688 687 686 684 683 681 680 679 677 676 675 674 673 673 672 671 668 664 659 656 654 654 653 651 647 645 643 641 638 635 632 630 630 629 629 630 630 630 629 628 627 626 626 628 630 630 631 632 633 633 632 632 632 632 632 633 635 637 639 641 643 646 648 650 652 654 656 658
709 707 706 705 704 702 701 700 699 697 696 695 694 693 692 691 690 688 687 686 685 684 682 681 680 678 676 675 674 673 672 671 671 670 668 664 660 656 654 654 653 651 647 644 642 640 637 633 630 628 628 628 628 628 628 627 625 625 624 623 624 625 626 628 629 630 630 629 629 628 628 628 629 630 632 635 637 639 641 644 646 648 650 652 655 656
707 706 705 704 702 701 700 699 698 696 696 694 693 692 691 690 688 687 686 685 684 683 682 681 679 677 676 675 673 672 671 670 670 669 667 664 660 656 654 654 653 651 647 644 641 639 636 632 629 627 627 627 626 626 625 623 622 621 621 621 621 622 623 625 625 626 626 625 625 625 625 625 626 628 630 632 635 637 639 642 644 646 649 651 653 655
706 705 704 702 701 700 699 697 696 695 694 693 692 691 691 689 687 686 685 684 684 683 683 681 679 677 675 674 672 671 670 669 668 667 666 664 661 657 655 654 653 651 648 644 641 638 636 633 630 628 627 626 625 623 621 620 619 619 619 619 619 620 620 621 622 622 622 622 622 622 622 623 624 626 628 630 633 635 637 640 642 645 647 650 652 654
706 704 703 701 700 699 698 696 695 694 693 692 691 691 690 688 687 686 685 684 684 683 682 681 679 676 674 672 671 670 669 668 667 666 665 664 661 658 655 655 654 652 649 645 640 636 635 633 631 628 626 625 624 622 619 618 617 617 617 617 616 617 617 618 618 619 619 619 619 619 619 620 622 624 626 628 630 633 635 638 641 644 646 649 651 653
704 703 702 701 699 698 697 696 694 693 692 691 691 690 688 687 686 686 685 684 683 683 681 680 678 676 675 672 671 669 668 667 666 665 664 663 661 658 656 655 654 653 651 646 641 636 633 631 630 628 627 625 623 621 619 617 616 615 615 614 614 613 614 614 615 615 615 616 616 616 617 618 620 621 624 626 628 631 634 636 640 642 645 648 650 651
703 701 700 699 698 697 696 694 693 692 691 690 689 688 687 686 686 685 684 684 683 682 681 679 678 676 675 673 671 668 667 666 666 665 664 663 661 658 657 656 655 653 652 649 645 639 633 629 627 627 627 625 622 619 616 615 613 612 611 611 610 610 610 610 611 612 612 613 613 614 615 616 617 619 621 624 626 629 632 635 638 641 643 646 648 650
702 700 699 698 696 695 694 693 692 691 690 689 688 687 686 686 685 684 683 683 682 681 680 678 677 676 675 673 671 668 666 665 665 665 664 663 661 659 657 656 655 653 653 653 651 646 638 630 626 625 625 623 620 616 613 610 610 609 609 609 608 607 607 607 607 608 609 610 610 611 612 614 615 617 620 622 625 627 630 633 636 639 641 643 646 647
701 700 698 697 696 694 693 692 691 690 689 688 687 686 686 685 684 683 682 682 681 680 679 678 676 675 674 673 671 669 666 664 664 664 664 663 661 659 658 656 655 653 653 653 653 651 646 638 630 625 623 620 617 613 609 608 607 608 608 608 607 605 604 604 605 605 607 607 608 609 610 612 614 615 618 620 623 626 628 631 634 636 638 641 643 645
701 699 698 696 695 694 692 691 690 689 688 687 686 685 684 684 683 682 681 681 680 679 678 677 676 674 673 672 670 668 666 664 663 663 663 663 661 659 657 656 654 653 652 651 651 650 648 643 637 630 624 620 615 612 609 608 607 607 607 606 605 603 601 602 602 603 604 605 606 608 609 610 612 614 617 619 622 624 626 629 631 633 635 638 640 642
700 698 697 696 694 693 692 691 690 688 687 686 685 684 683 682 681 681 680 679 678 677 676 676 674 673 672 670 669 666 664 662 662 662 663 662 661 659 656 655 654 653 651 651 649 648 646 644 641 636 629 621 615 612 610 609 607 606 606 605 603 601 600 600 600 601 602 603 605 606 608 610 612 614 616 618 620 623 625 627 629 631 633 635 638 641
699 698 696 695 693 692 691 690 689 688 686 686 685 684 683 681 681 679 678 677 676 676 675 674 673 672 671 669 667 665 662 661 661 661 661 661 660 658 656 655 654 653 652 651 649 648 646 643 641 638 634 626 618 613 610 608 606 604 604 603 601 600 598 598 598 599 600 601 603 605 607 609 611 613 615 617 619 621 623 626 628 630 632 634 636 638
699 697 696 694 693 691 690 689 688 687 686 685 684 683 681 681 679 678 677 676 675 674 673 672 671 670 669 668 666 664 661 660 659 660 660 660 659 658 656 654 653 653 652 651 649 648 646 643 641 638 635 630 622 614 609 605 603 601 601 601 600 599 597 596 596 597 598 599 601 603 605 608 610 612 614 615 617 620 622 625 627 629 631 633 635 637
699 697 696 694 692 691 689 688 687 686 685 684 683 682 681 679 678 677 676 674 673 672 671 670 669 668 667 666 665 663 661 659 658 658 658 658 657 657 656 654 652 652 652 651 649 648 646 643 639 636 633 629 623 616 609 604 601 599 598 598 598 597 596 595 595 595 596 598 600 601 604 606 609 611 613 615 618 620 622 625 626 628 630 633 635 636
699 697 696 694 692 691 689 687 686 685 684 683 682 681 680 678 677 676 674 673 671 670 669 668 667 666 665 664 662 661 659 658 656 656 656 656 656 655 654 653 651 651 651 650 648 646 644 641 638 634 630 625 621 616 610 606 602 599 595 594 594 594 594 593 593 594 595 597 599 601 603 606 608 610 613 615 618 620 622 624 626 628 630 632 635 636
699 697 696 694 692 691 689 687 686 684 683 682 681 680 679 677 676 675 673 671 670 669 667 666 665 664 662 661 660 659 658 656 655 654 654 654 653 653 652 651 649 648 647 647 646 644 642 639 636 633 629 624 619 614 610 606 604 600 595 592 591 591 592 592 592 593 595 596 599 601 603 605 607 610 612 614 616 618 620 622 624 626 628 631 633 636
699 698 696 695 693 691 690 688 686 684 682 681 680 679 678 676 675 673 672 670 669 667 666 665 664 662 661 660 658 657 656 655 654 653 652 652 651 651 650 649 647 646 644 643 642 641 639 636 634 632 629 625 620 615 610 606 602 599 596 593 591 590 590 590 591 593 594 595 597 600 602 604 606 608 610 612 613 615 616 619 621 623 625 627 630 633
699 698 696 695 693 691 690 688 686 684 683 681 679 678 677 676 674 672 671 669 668 666 665 664 662 661 659 658 656 656 655 654 653 652 651 650 649 649 648 646 645 643 641 640 638 637 635 634 631 629 626 623 620 615 611 606 601 598 596 594 592 591 590 590 591 592 594 595 596 598 600 603 605 607 609 610 611 613 615 616 619 621 623 625 627 629
700 698 696 695 693 691 690 688 686 684 683 681 680 678 677 676 674 672 671 669 667 666 664 663 661 660 658 656 655 654 653 652 651 650 649 648 647 646 646 644 643 641 640 638 636 634 633 631 629 627 624 622 619 615 610 605 600 597 596 594 592 591 591 591 591 592 593 594 596 598 600 602 604 606 608 609 611 613 614 616 618 619 622 624 626 628
700 698 696 695 693 691 689 687 686 684 682 681 680 678 677 676 674 673 671 669 667 666 664 662 661 659 657 656 654 652 651 650 650 649 648 647 646 645 644 642 641 640 638 637 635 633 631 629 627 625 623 621 619 615 611 605 601 598 595 593 592 591 592 593 593 593 593 594 595 597 599 601 604 605 607 609 610 612 614 616 618 619 621 623 625 628
700 698 696 695 693 691 689 687 686 684 682 681 679 678 677 676 674 673 671 670 667 666 663 662 660 659 657 656 653 651 650 649 648 647 646 646 645 643 642 641 639 638 637 635 634 632 630 628 626 624 621 619 616 614 610 606 602 599 595 592 592 592 593 594 594 594 593 594 595 596 598 600 602 604 607 609 610 612 614 615 617 619 621 623 625 627
701 698 696 695 693 691 689 687 686 684 682 681 679 678 676 676 674 673 671 670 668 666 663 662 660 659 657 655 653 651 649 647 646 646 645 644 643 642 641 640 638 637 635 634 633 631 630 628 625 622 619 617 614 611 608 605 602 597 593 592 592 593 594 594 594 594 593 593 594 595 596 598 600 603 606 608 610 612 613 615 617 619 621 623 625 626
700 698 696 695 693 691 689 687 686 684 682 680 679 678 676 675 674 673 672 670 668 666 663 662 660 659 657 656 654 652 650 648 646 645 643 642 641 640 639 638 637 636 635 633 632 631 629 628 625 622 619 616 613 609 605 603 600 596 593 592 593 593 594 595 595 594 594 593 593 594 596 598 600 603 605 607 609 611 613 615 616 618 620 622 625 626
701 699 696 695 693 691 689 688 686 684 682 680 679 677 676 675 674 673 672 670 668 666 664 662 660 659 658 656 654 653 651 649 647 645 643 642 641 639 638 637 636 635 634 632 631 630 629 627 625 623 620 616 611 606 603 601 598 596 595 594 594 594 595 595 595 595 595 594 594 595 596 598 600 603 605 607 609 611 613 615 617 619 620 622 624 626
701 699 697 695 693 691 690 688 686 684 682 681 679 677 676 675 674 673 672 670 668 666 664 662 660 659 657 656 655 653 652 650 648 646 645 643 641 639 638 636 635 634 633 631 630 629 628 627 625 623 620 617 612 608 604 600 598 596 595 594 595 595 596 596 596 596 596 595 596 596 597 598 600 602 604 606 609 611 614 616 618 620 621 622 623 625
701 700 698 696 694 692 690 688 686 685 683 681 679 677 676 675 674 673 672 671 669 667 665 662 661 659 658 656 655 654 652 651 649 647 646 644 642 640 638 636 634 633 631 630 629 629 627 626 625 623 620 617 613 609 605 601 599 597 596 595 596 597 598 598 598 598 598 597 598 598 599 599 600 600 603 606 609 612 614 616 618 620 621 622 623 625
702 700 698 696 695 693 691 689 687 685 683 681 679 677 676 675 674 673 672 671 670 668 666 663 661 660 658 657 656 654 653 651 649 648 646 645 643 641 639 637 635 633 631 630 629 628 627 626 625 624 621 617 612 609 605 602 600 598 597 597 598 599 600 600 600 600 600 599 600 600 600 600 601 602 603 606 609 612 615 617 619 620 621 622 623 625
702 701 699 697 695 693 691 690 688 686 684 682 680 678 676 674 673 672 672 671 670 668 666 665 663 661 659 658 656 655 653 652 650 648 647 646 644 642 641 639 637 635 633 632 630 629 628 628 625 622 617 613 610 608 605 603 601 600 599 599 600 600 601 602 602 601 601 601 602 602 602 601 602 602 603 605 608 611 615 617 619 620 621 622 623 625